Location: Bailleul
(50.3375°N, 2.8513°E)
Time: 08:51:57
(UTC+00:00)

deb Kosmos-252 - Pass Details

Date: 05 February 2022
Orbit: 721 x 1918 km, 62.3° (Epoch: 22 May)

Event Time Altitude Azimuth Distance (km) Brightness Sun altitude
Rises 17:40:51 0° 311° (NW) 3,183 ? -8.7°
Reaches altitude 10° 17:43:26 10° 321° (NW) 2,224 ? -9.1°
Maximum altitude 17:47:54 34° 27° (NNE) 1,202 ? -9.8°
Enters shadow 17:52:00 13° 89° (E) 2,124 ? -10.4°
